Location: Unspecified
(0.0000°N, 0.0000°E)
Time: 06:19:30
(UTC+00:00)

TBA - TO BE ASSIGNED - Pass Details

Date: 26 May 2026
Orbit: 462 x 464 km, 53.2° (Epoch: 8 June)

Event Time Altitude Azimuth Distance (km) Brightness Sun altitude
Rises 20:00:54 0° 238° (WSW) 2,482 ? -28.6°
Reaches altitude 10° 20:03:28 10° 256° (WSW) 1,604 ? -29.2°
Maximum altitude 20:06:09 20° 304° (NW) 1,130 ? -29.8°
Enters shadow 20:06:25 19° 310° (NW) 1,135 ? -29.9°
